Temperature
21 20 20 20 20 20 19 19 19 19 19 19 19 18 18 18 18 18 18 18 18 17 17 17 17 17 16 16 16 16 16 16 16 15 15 15 15 15 15 15 15 15 15
21 20 20 20 20 20 19 19 19 19 19 19 18 18 18 18 18 18 17 17 17 17 17 17 16 16 16 16 16 16 16 16 15 15 15 15 15 14 14 14 14 14 14
20 20 20 20 20 19 19 19 19 19 18 18 18 18 18 18 17 17 17 17 17 17 16 16 16 16 16 16 16 16 15 15 15 15 15 14 14 14 14 14 14 14 14
20 20 20 19 19 19 19 19 18 18 18 18 18 18 17 17 17 17 17 17 16 16 16 16 16 16 16 15 15 15 15 15 15 15 14 14 14 14 14 14 14 14 14
19 19 19 19 19 19 18 18 18 18 18 18 18 17 17 17 17 17 17 16 16 16 16 16 16 15 15 15 15 15 15 15 14 14 14 14 14 14 14 13 13 14 13
19 19 19 19 19 19 18 18 18 18 18 17 17 17 17 17 17 16 16 16 16 16 16 15 15 15 15 15 15 15 14 14 14 14 14 14 14 14 13 13 13 13 13
19 19 19 19 18 18 18 18 18 17 17 17 17 17 17 17 16 16 16 16 16 16 15 15 15 15 15 15 15 14 14 14 14 14 14 14 13 13 13 13 13 13 13
19 19 19 19 18 18 18 17 17 17 17 17 17 17 17 16 16 16 16 16 15 15 15 15 15 15 15 15 14 14 14 14 14 13 13 13 13 13 13 13 13 13 13
19 19 19 18 18 18 18 17 17 17 17 17 17 16 16 16 16 16 15 15 15 15 15 15 15 15 14 14 14 14 14 14 13 13 13 13 13 13 13 13 12 12 12
19 18 18 18 18 18 17 17 17 17 17 16 16 16 16 16 16 15 15 15 15 15 15 14 14 14 14 14 14 14 14 13 13 13 13 13 13 13 12 12 12 12 12
19 18 18 18 18 17 17 17 16 16 16 16 16 16 16 15 15 15 15 15 14 14 14 14 14 14 14 14 14 13 13 13 13 13 13 12 12 12 12 12 12 12 12
18 18 18 17 17 17 17 16 16 16 16 16 15 15 15 15 15 15 14 14 14 14 14 14 14 14 14 13 13 13 13 13 12 12 12 12 12 12 12 12 12 12 12
18 18 17 17 17 17 16 16 16 16 16 15 15 15 15 15 14 14 14 14 14 13 13 13 13 13 13 13 13 13 13 12 12 12 12 12 12 12 12 12 12 12 12
17 17 17 17 16 16 16 16 16 15 15 15 15 15 15 14 14 14 13 13 13 13 13 13 13 13 13 13 12 12 12 12 12 12 12 12 11 11 11 11 12 12 12
17 17 16 16 16 16 15 15 15 15 15 15 15 15 14 14 14 14 13 13 13 13 12 12 12 12 12 12 12 12 12 12 12 12 11 11 11 11 11 11 11 11 11
16 16 16 16 15 15 15 15 15 15 15 15 14 14 14 14 14 13 13 13 13 12 12 12 12 12 12 12 11 11 11 11 11 11 11 11 11 11 11 11 11 11 11
16 15 15 15 15 15 15 15 15 14 14 14 14 14 14 14 13 13 13 13 12 12 12 12 12 12 11 11 11 11 11 11 11 11 11 11 11 11 11 11 11 11 11
15 15 15 15 15 15 14 14 14 14 14 14 14 14 13 13 13 13 13 12 12 12 12 12 11 11 11 11 11 11 11 11 11 11 11 11 11 11 10 10 10 10 10
15 15 15 15 14 14 14 14 14 14 14 14 13 13 13 13 13 13 12 12 12 12 12 11 11 11 11 11 11 11 11 10 10 10 11 11 10 10 10 10 10 10 10
14 14 14 14 14 14 14 14 14 14 14 13 13 13 13 13 13 12 12 12 12 12 11 11 11 11 11 11 10 10 10 10 10 10 10 10 10 10 10 10 10 10 10
14 14 14 14 14 14 14 14 14 13 13 13 13 13 13 13 13 12 12 12 12 11 11 11 11 11 10 10 10 10 10 10 10 10 10 10 10 10 10 10 10 10 10
14 14 14 14 14 14 14 14 13 13 13 13 13 13 13 12 12 12 12 12 11 11 11 11 10 10 10 10 10 10 10 10 10 10 10 10 10 10 10 10 10 10 10
13 13 13 13 13 13 13 13 13 13 13 13 12 12 12 12 12 12 12 11 11 11 11 10 10 10 10 10 10 10 10 10 10 10 10 10 10 10 10 10 9 9 9
13 13 13 13 13 13 13 13 13 13 12 12 12 12 12 12 12 11 11 11 11 10 10 10 10 10 10 10 10 10 10 10 10 9 10 10 10 9 10 9 9 9 9
13 13 13 13 13 13 13 13 12 12 12 12 12 11 11 11 11 11 11 11 10 10 10 10 10 10 10 10 9 9 9 9 9 9 9 9 9 9 9 9 9 9 9
13 13 12 12 12 12 12 12 12 12 12 11 11 11 11 11 11 11 10 10 10 10 10 10 10 10 9 9 9 9 9 9 9 9 9 9 9 9 9 9 9 9 9
Wind_Speed
8 7 7 6 6 5 5 5 5 4 4 4 4 3 3 3 3 3 2 2 2 1 1 1 1 1 1 1 1 2 2 2 3 3 2 2 1 1 1 3 4 5 5
8 7 7 6 6 6 5 5 5 4 4 4 4 3 3 3 3 3 3 2 2 2 2 1 2 1 1 1 1 1 2 3 3 3 2 1 2 2 2 2 3 4 5
8 7 6 6 6 6 6 5 5 5 4 4 3 3 3 3 3 3 3 3 3 3 3 3 2 1 1 1 1 1 1 1 2 3 2 2 2 1 0 1 1 1 4
8 7 7 7 7 7 6 5 5 5 5 4 4 4 4 3 3 3 3 3 3 3 3 3 3 3 3 2 1 1 1 1 1 1 1 2 1 1 0 1 1 2 3
7 7 7 6 5 5 5 5 5 5 6 5 4 4 4 4 4 4 4 4 3 3 3 3 3 3 4 3 2 2 2 2 1 1 2 1 2 1 2 2 2 2 3
8 7 6 6 5 5 5 5 4 4 4 4 4 4 4 4 5 6 5 3 3 3 3 2 2 2 3 2 3 3 4 4 3 3 2 3 4 3 2 2 2 1 3
7 6 6 6 6 6 6 5 5 5 4 4 4 4 4 4 5 5 5 4 3 4 4 3 3 2 2 2 2 1 2 4 5 5 5 5 4 5 3 3 3 3 4
6 6 6 7 6 6 5 5 5 4 4 4 4 5 4 4 5 5 4 3 3 3 4 4 4 3 2 2 2 1 2 3 4 4 5 5 5 5 5 5 4 3 3
5 5 6 6 6 6 6 6 5 4 4 4 4 4 4 4 4 5 5 2 2 2 3 2 3 3 3 3 3 2 2 3 3 3 4 4 5 5 4 2 1 1 2
5 5 5 5 6 7 7 6 4 4 4 4 3 3 4 4 4 5 5 2 2 1 1 1 3 3 3 3 3 3 3 4 3 3 3 3 3 3 3 4 4 3 2
4 4 4 4 5 6 5 4 4 4 3 3 3 2 3 4 4 4 4 3 3 2 2 2 2 3 3 3 4 4 5 4 3 2 2 2 2 2 2 2 3 4 4
4 4 4 4 4 4 4 4 4 4 3 3 2 2 2 2 3 3 3 4 3 3 3 2 3 4 4 4 3 4 4 2 1 1 1 2 2 2 3 2 3 4 4
4 4 4 3 3 3 4 4 2 2 3 3 3 2 2 2 2 3 3 3 3 3 2 3 3 4 3 3 3 3 2 1 1 1 2 3 3 3 2 2 2 2 2
4 4 4 4 3 2 2 3 3 3 3 3 3 3 3 2 2 2 2 1 1 1 1 2 3 3 1 1 1 1 1 2 2 2 2 3 2 1 1 1 2 1 1
4 3 3 3 3 3 2 2 3 3 5 5 5 5 5 4 6 6 4 3 3 2 1 0 1 0 0 1 1 1 1 1 1 2 1 2 2 2 2 1 1 1 1
3 3 3 3 3 3 3 1 1 1 3 5 6 5 4 6 6 5 5 5 4 5 3 1 2 2 3 3 3 2 2 2 3 2 2 2 3 3 2 2 1 1 2
3 3 3 4 4 4 3 3 2 2 2 1 3 5 5 5 6 5 5 4 4 5 3 3 3 3 3 4 3 3 3 3 3 3 2 3 3 3 2 2 1 1 2
2 3 4 4 5 4 4 4 3 3 2 2 2 3 4 5 6 5 5 3 1 2 3 4 4 4 3 3 3 3 3 2 2 2 2 2 3 2 2 2 2 2 2
2 2 3 3 4 4 4 4 3 3 3 2 1 2 2 3 3 4 4 3 3 3 4 4 4 4 4 4 3 3 3 3 2 2 2 3 3 2 3 3 3 3 2
2 4 3 3 3 3 3 3 3 3 3 3 3 3 2 2 2 2 3 3 4 4 4 4 4 4 4 3 3 3 2 2 2 3 3 3 3 3 3 4 3 3 3
2 3 4 3 3 3 3 4 4 3 3 3 4 4 6 4 5 4 4 4 4 4 4 3 3 3 3 3 3 3 3 3 3 3 3 3 3 3 3 3 3 3 3
2 2 3 3 3 3 3 3 3 3 3 3 2 2 5 3 3 3 3 3 3 3 3 3 3 3 3 3 4 3 3 4 4 3 3 3 3 3 3 3 3 3 2
1 2 2 3 3 3 3 3 3 3 3 3 3 2 3 3 3 3 3 3 3 2 2 2 2 2 2 2 3 4 4 5 5 5 4 4 4 3 3 4 4 4 4
2 2 3 2 2 2 3 3 3 3 3 3 3 3 3 3 3 3 3 3 3 2 2 2 2 3 3 2 3 3 4 5 5 5 5 5 4 4 4 4 4 5 5
2 2 2 2 2 3 3 3 2 2 3 2 3 3 3 3 3 2 2 2 2 2 2 2 2 2 3 3 2 2 3 4 4 3 3 3 4 4 4 4 4 4 4
2 2 2 2 2 2 3 3 2 2 2 2 2 2 2 2 2 2 2 2 2 1 1 1 1 1 1 1 2 1 1 2 3 3 3 3 4 4 4 4 4 4 4
Wind_Direction
182 181 180 180 178 174 174 181 181 182 185 186 187 185 192 203 190 175 190 178 168 199 232 205 251 215 193 195 176 175 184 171 216 265 262 278 272 266 259 222 215 205 217
182 178 179 176 171 175 181 183 177 177 187 189 185 184 199 202 188 180 194 193 183 200 228 234 264 225 172 197 172 189 208 199 194 232 276 278 259 243 235 233 221 220 222
171 171 173 177 180 187 190 189 185 188 193 192 183 189 196 193 190 194 193 197 199 206 213 209 225 188 215 233 185 215 233 220 181 189 243 261 264 247 263 274 257 245 238
167 171 180 188 192 192 191 187 189 191 194 198 194 196 197 194 195 196 195 203 210 216 212 205 205 191 203 203 201 213 203 175 160 175 233 274 269 269 181 233 291 287 272
165 173 189 192 187 183 185 190 191 192 195 194 196 203 204 203 209 202 208 213 210 225 233 223 216 200 198 193 200 199 178 171 182 194 227 273 278 259 242 226 244 279 277
170 182 184 180 181 184 189 191 190 197 201 196 202 206 215 226 219 214 205 205 203 208 224 236 228 201 201 195 198 196 187 194 204 207 228 235 245 239 232 227 222 247 270
170 175 179 181 183 183 188 189 196 203 206 211 213 209 219 228 219 211 199 188 195 203 206 216 238 227 203 208 228 239 246 232 214 203 213 229 230 228 214 230 231 228 240
174 181 185 185 187 185 184 192 202 202 202 211 219 217 216 229 217 204 189 177 190 209 218 215 210 221 215 180 180 221 274 269 247 223 216 230 237 233 216 215 222 240 263
182 192 196 191 188 186 192 201 204 202 205 210 212 210 208 221 203 188 174 169 189 225 233 207 185 197 215 187 166 189 263 286 279 258 246 244 249 242 212 178 206 218 273
198 203 200 190 189 193 199 200 198 196 205 207 215 206 197 203 207 198 182 171 188 213 248 241 223 210 218 203 187 193 229 260 280 298 295 293 279 261 234 204 197 205 234
189 189 190 193 197 196 191 187 186 187 187 189 190 201 195 195 198 196 183 175 190 198 220 248 251 225 223 222 208 210 225 233 238 250 274 290 294 288 276 246 211 200 209
168 175 186 187 194 189 181 184 185 183 183 188 192 209 210 204 197 194 182 187 186 191 228 244 243 234 241 239 225 223 232 227 206 223 267 276 273 272 271 265 240 222 217
165 175 179 180 184 177 179 186 188 187 188 194 192 208 216 207 209 202 190 193 193 196 231 247 249 246 251 248 247 237 204 169 168 194 244 255 255 255 266 290 291 282 288
172 181 181 179 183 179 173 182 183 190 192 194 199 209 211 207 211 209 206 200 195 207 264 269 258 252 251 263 282 251 188 185 188 207 239 264 279 285 274 260 266 279 298
170 179 176 175 174 177 178 193 197 208 202 198 205 202 198 214 224 204 188 194 193 199 189 22 15 2 309 308 295 278 248 212 216 235 234 266 279 285 278 273 254 242 237
165 180 185 184 184 180 173 176 345 227 220 208 203 193 206 209 199 200 202 201 199 179 152 173 223 230 227 230 237 250 249 234 230 227 228 240 250 251 259 268 246 223 237
175 191 194 191 186 185 186 184 207 331 356 291 217 203 196 194 192 196 201 207 208 171 169 210 223 228 232 227 222 225 240 243 230 226 232 244 248 245 240 247 247 243 253
177 196 199 199 195 193 195 196 191 193 218 281 285 235 210 204 204 203 190 157 189 196 208 216 223 225 226 223 221 228 244 254 245 239 238 240 241 237 237 238 232 230 242
191 204 206 200 196 193 193 190 193 195 197 212 252 284 234 205 203 202 173 178 202 221 223 223 224 220 221 221 223 223 224 232 238 235 237 239 236 225 232 236 234 238 232
216 209 202 199 194 190 191 190 193 197 204 210 219 225 184 144 177 210 213 218 220 227 227 226 229 228 224 224 220 215 221 230 236 235 235 238 237 226 229 232 229 227 228
226 223 212 209 201 195 192 192 192 195 201 213 224 212 184 189 203 210 217 223 223 225 223 221 221 225 222 215 214 217 220 232 234 236 238 238 235 235 236 231 228 222 218
225 217 208 214 210 201 195 195 192 195 204 210 223 215 198 199 202 210 216 225 226 221 213 200 214 229 227 213 212 215 222 236 242 242 242 241 238 236 233 228 225 220 219
226 219 210 216 207 197 194 192 188 190 198 201 194 187 194 211 216 216 218 217 215 214 210 202 213 240 251 223 212 214 224 235 239 239 236 238 239 239 234 229 227 224 222
216 212 203 200 189 180 184 188 186 187 190 195 196 197 202 213 219 216 214 210 207 205 201 199 218 232 234 238 227 220 225 237 239 234 227 229 236 240 233 230 230 224 222
211 204 201 199 188 184 181 180 179 181 190 194 194 197 205 213 220 220 211 195 187 194 212 216 218 225 226 237 240 239 254 255 246 235 216 220 232 232 225 226 227 223 223
201 187 185 187 185 182 181 185 189 191 198 205 197 193 198 204 208 198 183 175 176 193 219 223 219 219 224 224 237 259 275 264 261 256 227 216 226 233 230 233 229 223 220
Height
1510 1511 1513 1515 1516 1518 1518 1519 1520 1521 1521 1522 1522 1522 1522 1522 1522 1522 1522 1522 1522 1521 1521 1521 1521 1521 1521 1520 1520 1520 1520 1520 1519 1518 1519 1518 1518 1518 1517 1517 1516 1516 1516
1508 1509 1511 1513 1514 1515 1516 1517 1518 1518 1519 1519 1519 1520 1520 1520 1520 1520 1520 1520 1519 1519 1519 1519 1519 1519 1518 1518 1518 1518 1518 1517 1517 1516 1516 1515 1515 1515 1515 1514 1514 1514 1514
1506 1507 1509 1510 1511 1512 1514 1515 1515 1516 1516 1516 1517 1517 1517 1517 1517 1517 1517 1518 1517 1517 1517 1517 1517 1516 1516 1516 1516 1515 1515 1515 1514 1514 1513 1513 1513 1512 1512 1511 1511 1511 1511
1502 1504 1506 1508 1509 1510 1511 1512 1513 1514 1514 1514 1514 1514 1514 1515 1515 1515 1515 1515 1515 1515 1514 1514 1514 1514 1514 1514 1513 1513 1512 1512 1512 1511 1511 1510 1510 1509 1509 1508 1508 1508 1508
1500 1501 1503 1506 1507 1507 1508 1509 1510 1511 1511 1511 1512 1512 1512 1512 1512 1512 1512 1512 1512 1512 1512 1512 1512 1512 1511 1511 1511 1510 1510 1510 1509 1509 1508 1507 1507 1506 1506 1506 1505 1505 1505
1498 1500 1502 1503 1504 1505 1506 1507 1508 1508 1509 1509 1509 1509 1509 1509 1509 1509 1509 1509 1509 1509 1509 1509 1509 1509 1509 1508 1508 1508 1508 1507 1507 1506 1505 1505 1504 1504 1503 1503 1503 1502 1502
1496 1497 1499 1500 1501 1501 1502 1504 1505 1505 1506 1506 1506 1506 1506 1506 1506 1506 1506 1506 1506 1506 1506 1506 1506 1506 1506 1506 1505 1505 1505 1505 1504 1504 1503 1502 1501 1501 1501 1500 1500 1500 1499
1493 1495 1496 1496 1497 1498 1499 1500 1501 1502 1502 1503 1503 1503 1503 1503 1503 1503 1503 1503 1503 1503 1503 1503 1503 1503 1503 1503 1503 1502 1502 1501 1501 1501 1500 1500 1499 1499 1498 1498 1497 1497 1497
1491 1492 1492 1493 1494 1495 1496 1497 1498 1499 1499 1500 1500 1500 1500 1500 1500 1500 1500 1500 1500 1500 1500 1500 1500 1500 1500 1500 1500 1499 1499 1498 1498 1498 1497 1497 1496 1496 1496 1495 1495 1494 1493
1488 1489 1490 1490 1490 1491 1492 1493 1495 1496 1496 1497 1497 1497 1497 1497 1497 1497 1497 1497 1497 1497 1497 1497 1498 1497 1497 1497 1497 1496 1496 1495 1495 1494 1494 1494 1493 1493 1493 1492 1492 1491 1490
1485 1486 1487 1488 1488 1488 1489 1490 1491 1492 1493 1493 1493 1493 1494 1494 1494 1494 1494 1494 1494 1494 1494 1494 1494 1494 1494 1494 1494 1493 1493 1492 1492 1491 1491 1490 1490 1490 1489 1489 1488 1488 1487
1482 1483 1484 1485 1485 1486 1486 1487 1488 1489 1489 1490 1490 1490 1490 1490 1491 1491 1491 1491 1491 1491 1491 1491 1491 1491 1491 1491 1491 1490 1490 1490 1489 1488 1488 1487 1487 1487 1486 1486 1486 1485 1485
1479 1479 1480 1481 1482 1483 1483 1484 1484 1485 1486 1486 1487 1487 1487 1487 1487 1488 1488 1488 1488 1488 1488 1488 1489 1489 1488 1488 1487 1487 1487 1486 1486 1485 1485 1484 1484 1484 1484 1483 1483 1482 1482
1475 1476 1476 1477 1478 1479 1480 1481 1481 1482 1482 1483 1483 1483 1483 1484 1484 1484 1485 1485 1485 1485 1485 1485 1485 1485 1485 1485 1484 1484 1484 1483 1483 1483 1482 1482 1481 1481 1481 1480 1480 1480 1479
1472 1473 1474 1474 1475 1476 1477 1478 1479 1479 1480 1480 1480 1480 1480 1480 1481 1481 1481 1481 1481 1481 1481 1482 1482 1482 1481 1481 1481 1481 1481 1481 1480 1480 1479 1479 1478 1478 1477 1477 1477 1477 1476
1469 1470 1471 1471 1472 1473 1474 1475 1475 1476 1477 1477 1477 1478 1477 1478 1478 1478 1478 1478 1478 1478 1478 1478 1478 1478 1478 1478 1478 1478 1478 1477 1477 1477 1476 1476 1475 1475 1474 1474 1474 1474 1473
1466 1467 1468 1468 1469 1470 1471 1471 1472 1473 1473 1474 1474 1475 1475 1475 1475 1475 1475 1475 1475 1475 1474 1474 1474 1474 1475 1475 1475 1474 1474 1474 1474 1473 1473 1473 1472 1472 1472 1471 1471 1471 1471
1464 1465 1465 1466 1467 1467 1468 1469 1469 1469 1470 1470 1471 1472 1472 1472 1473 1472 1472 1472 1471 1471 1471 1471 1471 1471 1471 1471 1471 1471 1471 1471 1471 1470 1470 1470 1469 1469 1469 1468 1468 1468 1468
1461 1461 1462 1463 1464 1465 1465 1466 1466 1467 1467 1467 1468 1469 1469 1469 1470 1470 1469 1469 1468 1468 1468 1468 1468 1468 1468 1468 1468 1468 1468 1467 1467 1467 1466 1466 1466 1466 1466 1465 1465 1465 1465
1460 1459 1460 1460 1461 1462 1462 1463 1464 1464 1464 1464 1465 1465 1466 1466 1466 1466 1466 1465 1465 1464 1464 1464 1464 1464 1464 1464 1464 1464 1464 1464 1463 1463 1463 1463 1463 1462 1462 1462 1462 1462 1462
1457 1457 1457 1458 1458 1459 1460 1460 1461 1461 1461 1462 1462 1462 1463 1463 1462 1462 1462 1462 1462 1461 1461 1460 1460 1460 1461 1460 1461 1460 1460 1460 1460 1460 1459 1459 1459 1459 1459 1459 1458 1458 1458
1454 1454 1454 1455 1455 1456 1457 1457 1458 1458 1458 1459 1459 1459 1459 1459 1459 1459 1459 1459 1458 1458 1457 1457 1457 1457 1457 1457 1457 1457 1457 1456 1456 1456 1455 1455 1455 1455 1454 1454 1455 1455 1455
1452 1452 1452 1452 1453 1453 1454 1454 1455 1455 1455 1455 1455 1455 1455 1455 1455 1455 1455 1455 1455 1454 1454 1454 1453 1453 1453 1453 1453 1453 1452 1452 1452 1451 1451 1451 1451 1451 1450 1450 1450 1451 1451
1449 1449 1449 1449 1450 1450 1451 1451 1451 1452 1452 1452 1452 1452 1452 1452 1452 1451 1451 1451 1451 1451 1451 1450 1450 1449 1449 1449 1449 1449 1448 1448 1447 1447 1447 1446 1446 1446 1446 1446 1446 1446 1447
1446 1446 1446 1447 1447 1448 1448 1448 1448 1449 1449 1449 1449 1449 1449 1449 1448 1448 1448 1448 1448 1448 1448 1447 1446 1446 1445 1445 1445 1444 1444 1443 1443 1442 1442 1442 1442 1442 1442 1442 1442 1442 1442
1443 1443 1444 1444 1444 1444 1445 1445 1445 1446 1446 1446 1446 1446 1446 1446 1446 1445 1445 1445 1445 1445 1444 1444 1443 1443 1442 1441 1441 1440 1439 1439 1438 1438 1437 1437 1437 1437 1437 1437 1437 1438 1438